STARLINK-32511, 61727

Orbit data source: Space-Track

STARLINK-32511, 61727 is a payload satellite owned by SpaceX/Seattle (US) in LEO that was launched on Wed, 30 Oct 2024 UTC via an FALCON 9 launch vehicle from the Air Force Eastern Test Range (AFETR). Payload-class satellites include a variety of spacecraft equipped with specific instruments for various scientific and technological missions. These include communications satellites like Starlink; space stations such as the ISS; scientific satellites like the Hubble; Earth observation satellites from companies like Planet Labs, Umbra, and HawkEye 360; GPS; miniature CubeSats for education and research; and military/defense satellites.

Loading next visibility...
Identifier
61727, 2024-196W
Orbit
LEO
Country
Flag of USUS
Related business
Manufacturer
SpaceX/Seattle
Mission
Operational Commercial Communications
Bus & Motor
STARLINK V2M, Unknown motor
Mass
730 kg wet, ~700 kg dry
Launch date (UTC)
2024-10-30 (1 year ago)
Launch vehicle
FALCON 9
Launch site
Air Force Eastern Test Range (AFETR)
Object type
Payload
Rocket body
Debris
Shape & HBR
Box + 2 Pan, 17.7 m
Radar Cross Section
33.884 m², Large (>1 m²)

Expand to show TLE details & history
Last TLE update: 2 days ago

TLE from 2 days ago
0 STARLINK-32511
1 61727U 24196W   25306.37122128  .00001177  00000-0  51857-4 0  9993
2 61727  53.1617 332.7141 0001244  83.6309 276.4833 15.30195292 57663
Epoch: 2025-11-02T08:54Z
TLE epoch observation values (Epoch: 2025-11-02T08:54:33.518Z)
Latitude
-0.00006°
Longitude
157.18649°
Altitude
476.033 km
Speed
7.629 km/s
True Right ascension
22h 10m 51s
True Declination
0° 00' 00"
Sunlit
Object was in full shadow at epoch
Visualization orbit readout
Latitude
Unknown
Longitude
Unknown
Altitude
Unknown
Speed
Unknown
Apparent Right ascension
Unknown
Apparent Declination
Unknown
Sunlit
N/A
Visualization observer readout
Local Sidereal Time
17:45:51
Azimuth
Unknown
Elevation
Unknown
Doppler factor
Unknown
Orbital elements
Apogee altitude
476.338 km
Perigee altitude
474.633 km
Semi-major axis
6,853.622 km
Eccentricity
0.00012
Inclination
53.1617°
RAAN
332.7141°
Arg. of periapsis
83.6309°
True anomaly
276.46914°
Mean anomaly
276.4833°
Eccentric anomaly
276.47622°
Mean motion
3.82528 °/min
Orbital period
94.11 mins
BSTAR
0.000051857
Loading maneuver chart data...
Computing Atmospheric mass density...
Loading historical data...
Loading historical data...
Loading historical data...
Loading historical data...
Loading historical data...
Loading historical data...
Loading historical data...

Documentation

Showing up to 5 results
|